Weather in Ucheykino

Russia / Mari El Republic     56°04′02″N   48°46′53″E
temp.,
°C
wind,
m/s
gust,
m/s
humid.,
%
clouds,
%
prec.,
mm/h
press.,
hPa
HPBL,
m
5 december, sun
sun500:00−2wsw6118190 0.0 1009767
03:00−3wsw5108897 0.1 1010837
06:00−3w598896 0.1 1011773
09:00−4w488471 0.2 1014772
12:00−4w577699 0.0 1015864
15:00−4wnw368098 0.1 1017701
18:00−5n2387100 0.0 1018324
21:00−6nne2286100 0.1 1020267
6 december, mon
mon600:00−7n228771 0.2 1021247
03:00−8n238577 0.2 1022224
06:00−9nne238368 0.0 1023211
09:00−9nne228049 0.0 1025181
12:00−8n117564 0.0 1026270
15:00−9ne228062 0.0 1028150
18:00−9ene227897 0.0 1029179
21:00−9e228195 0.0 1030175
7 december, tue
tue700:00−9e238298 0.0 1030165
03:00−8ese348676 0.0 1031180
06:00−8ese358966 0.0 1032195
09:00−8ese378754 0.1 1032233
12:00−6se488376 0.0 1032308
15:00−6se5118596 0.0 1031367
18:00−5se61484100 0.0 1029460
21:00−4se71680100 0.0 1028595
8 december, wed
wed800:00−4sse71787100 0.4 1026718
03:00−5sse81795100 5.0 1024596
06:00−3sse71695100 5.1 1022511
09:000s71595100 7.9 1022556
12:00+1s71596100 0.7 1022545
15:00+1s61397100 0.7 1022527
18:00+1s61297100 0.0 1023413
21:000s51294100 0.0 1023334
9 december, thu
thu900:000sse41093100 0.0 1024277
03:00−1sse4995100 0.0 1024217
06:00−1se4995100 0.0 1024230
09:00−1se41194100 0.0 1024300
12:00−1sse51290100 0.0 1024353
15:00−1se5119095 0.0 1023331
18:00−2se51190100 0.0 1023300
21:00−2se51191100 0.0 1022320